Location: Unspecified
(0.0000°N, 0.0000°E)
Time: 02:05:33
(UTC+00:00)

Fuji - Pass Details

Date: 04 December 2022
Orbit: 1479 x 1496 km, 50.0° (Epoch: 26 January)

Event Time Altitude Azimuth Distance (km) Brightness Sun altitude
Rises 19:19:51 0° 292° (WNW) 4,591 ? -20.6°
Reaches altitude 10° 19:23:46 10° 277° (W) 3,615 ? -21.5°
Maximum altitude 19:30:14 22° 231° (SW) 2,814 ? -23.0°
Drops below altitude 10° 19:36:46 10° 184° (S) 3,630 ? -24.5°
Sets 19:40:46 0° 169° (S) 4,615 ? -25.4°
